User: anonymous   Login
Location: Mohawk View
(42.7837°N, 73.7885°W)
Time: 01:36:24
(UTC+00:00)
Language:

Cosmos 1544 Rocket - Orbit

View from above orbital plane
View from above orbital plane
View from above satellite
View from above satellite

Ground track
Ground track

The orbit data is extracted from the following two-line orbital elements,

1 14820U 84027B   21260.49114236  .00000097  00000-0  88744-5 0  9999
2 14820  82.5450 334.2305 0018098 339.6007  20.4483 14.83716208 26273
Epoch (UTC): 17 September 2021 11:47:14
Eccentricity: 0.0018098
inclination: 82.5450°
perigee height: 605 km
apogee height: 630 km
right ascension of ascending node: 334.2305°
argument of perigee: 339.6007°
revolutions per day: 14.83716208
mean anomaly at epoch: 20.4483°
orbit number at epoch: 2627

The dashed part of the orbit path shows where the satellite is in the earth's shadow,  

DLR